N3SBK Weather Reports


Display with metric or nautical units.
time (UTC)temp
F
wind
direction
speed
MPH
gust
MPH
rain 1hr
in
rain 24hr
in
rain mn
in
humidity
%
barometer
mb
20260504041858 44 91 0.0 0.0 0.00 0.00 0.00 60 1005.3
20260504041354 44 83 0.0 0.0 0.00 0.00 0.00 59 1004.8
20260504040850 44 91 0.0 0.0 0.00 0.00 0.00 59 1005.0
20260504040348 44 91 0.0 0.0 0.00 0.00 0.00 59 1005.1
20260504035843 44 96 0.0 0.0 0.00 0.00 0.00 59 1005.2
20260504035342 44 87 0.0 0.0 0.00 0.00 0.00 59 1005.3
20260504034838 44 92 0.0 0.0 0.00 0.00 0.00 59 1005.1
20260504034336 44 82 0.0 0.0 0.00 0.00 0.00 59 1005.2
20260504033832 44 89 0.0 0.0 0.00 0.00 0.00 59 1005.3
20260504033331 44 87 0.0 0.0 0.00 0.00 0.00 58 1005.4
20260504032827 44 93 0.0 1.0 0.00 0.00 0.00 58 1005.3
20260504032324 44 89 0.0 0.0 0.00 0.00 0.00 59 1005.3
20260504031821 44 87 0.0 0.0 0.00 0.00 0.00 59 1005.3
20260504031318 44 92 0.0 0.0 0.00 0.00 0.00 60 1005.2
20260504030814 44 88 0.0 0.0 0.00 0.00 0.00 60 1005.3
20260504030312 44 95 1.0 1.0 0.00 0.00 0.00 59 1005.4
20260504025808 44 83 0.0 0.0 0.00 0.00 0.00 60 1005.5
20260504025305 44 94 0.0 0.0 0.00 0.00 0.00 61 1005.3
20260504024801 44 91 0.0 0.0 0.00 0.00 0.00 60 1005.3
20260504024258 44 88 0.0 0.0 0.00 0.00 0.00 61 1005.4
20260504023755 44 91 0.0 0.0 0.00 0.00 0.00 60 1005.5
20260504023251 44 97 0.0 0.0 0.00 0.00 0.00 62 1005.6
20260504022747 44 87 0.0 0.0 0.00 0.00 0.00 62 1005.4
20260504022244 45 80 0.0 0.0 0.00 0.00 0.00 60 1005.5
20260504021741 44 82 0.0 0.0 0.00 0.00 0.00 60 1005.4
20260504021238 45 89 0.0 0.0 0.00 0.00 0.00 62 1005.3
20260504020735 45 88 0.0 0.0 0.00 0.00 0.00 60 1005.4
20260504020231 45 84 0.0 0.0 0.00 0.00 0.00 59 1005.4
20260504015728 45 86 0.0 0.0 0.00 0.00 0.00 59 1005.3
20260504015224 45 83 0.0 0.0 0.00 0.00 0.00 60 1005.3
20260504014720 45 90 0.0 0.0 0.00 0.00 0.00 61 1005.4
20260504014217 45 83 0.0 0.0 0.00 0.00 0.00 62 1005.4
20260504013715 46 91 0.0 0.0 0.00 0.00 0.00 60 1005.3
20260504013212 46 84 0.0 0.0 0.00 0.00 0.00 59 1005.2
20260504012708 46 95 0.0 0.0 0.00 0.00 0.00 58 1005.2
20260504012206 46 88 0.0 0.0 0.00 0.00 0.00 57 1005.3
20260504011703 47 87 0.0 0.0 0.00 0.00 0.00 56 1005.2
20260504011159 47 94 0.0 0.0 0.00 0.00 0.00 57 1005.1
20260504010655 47 93 0.0 0.0 0.00 0.00 0.00 56 1005.2
20260504010151 48 99 0.0 0.0 0.00 0.00 0.00 56 1005.2
20260504005648 48 93 0.0 0.0 0.00 0.00 0.00 56 1005.1
20260504005145 48 82 0.0 0.0 0.00 0.00 0.00 55 1005.3
20260504004643 49 87 0.0 0.0 0.00 0.00 0.00 56 1005.1
20260504004140 49 90 0.0 0.0 0.00 0.00 0.00 55 1005.1
20260504003636 50 102 0.0 0.0 0.00 0.00 0.00 53 1005.1
20260504003133 50 123 0.0 0.0 0.00 0.00 0.00 50 1005.0
20260504002630 50 124 0.0 0.0 0.00 0.00 0.00 48 1005.0
20260504002127 50 187 0.0 0.0 0.00 0.00 0.00 46 1005.0
20260504001625 51 188 0.0 0.0 0.00 0.00 0.00 47 1005.1
20260504001121 52 189 0.0 0.0 0.00 0.00 0.00 47 1005.1
20260504000619 52 260 0.0 0.0 0.00 0.00 0.00 44 1005.0
20260504000116 52 303 1.0 1.0 0.00 0.00 0.00 44 1005.0
20260503235614 52 285 2.0 2.0 0.00 0.00 0.00 44 1005.1
20260503235110 53 224 0.0 1.0 0.00 0.00 0.00 43 1004.8
20260503234608 53 270 2.0 2.0 0.00 0.00 0.00 42 1004.8
20260503234106 53 278 1.0 2.0 0.00 0.00 0.00 42 1005.0
20260503233603 53 263 2.0 3.0 0.00 0.00 0.00 41 1005.0
20260503233058 54 291 2.0 3.0 0.00 0.00 0.00 40 1005.0
20260503232555 54 247 1.0 2.0 0.00 0.00 0.00 41 1005.0
20260503232053 54 230 1.0 3.0 0.00 0.00 0.00 41 1005.1
20260503231551 54 248 2.0 3.0 0.00 0.00 0.00 39 1005.1
20260503231047 55 256 3.0 3.0 0.00 0.00 0.00 39 1005.0
20260503230544 56 281 2.0 4.0 0.00 0.00 0.00 39 1005.1
20260503230041 55 243 2.0 4.0 0.00 0.00 0.00 39 1005.1
20260503225538 55 308 2.0 3.0 0.00 0.00 0.00 40 1005.3
20260503225033 54 259 2.0 3.0 0.00 0.00 0.00 42 1005.0
20260503224531 54 240 1.0 2.0 0.00 0.00 0.00 40 1005.1
20260503224028 55 294 1.0 3.0 0.00 0.00 0.00 41 1005.1
20260503223526 56 272 3.0 3.0 0.00 0.00 0.00 39 1005.2
20260503223021 56 173 1.0 4.0 0.00 0.00 0.00 37 1005.3
20260503222520 56 252 3.0 3.0 0.00 0.00 0.00 38 1005.3
20260503222018 56 243 2.0 2.0 0.00 0.00 0.00 38 1005.1
20260503221516 57 259 2.0 4.0 0.00 0.00 0.00 38 1005.1
20260503221013 57 263 4.0 4.0 0.00 0.00 0.00 37 1005.1
20260503220509 57 237 3.0 4.0 0.00 0.00 0.00 37 1005.1
20260503220006 56 355 2.0 4.0 0.00 0.00 0.00 36 1005.3
20260503215503 58 268 2.0 4.0 0.00 0.00 0.00 36 1005.2
20260503215000 58 279 1.0 3.0 0.00 0.00 0.00 35 1005.0
20260503214458 57 244 2.0 4.0 0.00 0.00 0.00 36 1005.0
20260503213955 56 222 2.0 4.0 0.00 0.00 0.00 37 1005.0
20260503213453 57 325 1.0 3.0 0.00 0.00 0.00 37 1005.1
20260503212949 56 259 2.0 4.0 0.00 0.00 0.00 37 1005.2
20260503212446 57 352 1.0 4.0 0.00 0.00 0.00 36 1005.2
20260503211944 58 264 4.0 4.0 0.00 0.00 0.00 37 1005.0
20260503211441 57 260 2.0 4.0 0.00 0.00 0.00 37 1005.0
20260503210936 56 275 2.0 3.0 0.00 0.00 0.00 37 1005.4
20260503210433 55 235 1.0 3.0 0.00 0.00 0.00 41 1005.1
20260503205928 56 197 2.0 3.0 0.00 0.00 0.00 38 1005.2
20260503205425 56 273 2.0 4.0 0.00 0.00 0.00 40 1005.4
20260503204921 55 256 3.0 4.0 0.00 0.00 0.00 40 1005.2
20260503204419 55 265 2.0 2.0 0.00 0.00 0.00 40 1005.3
20260503203916 56 250 1.0 4.0 0.00 0.00 0.00 39 1005.5
20260503203413 55 266 1.0 3.0 0.00 0.00 0.00 39 1005.5
20260503202910 56 268 2.0 3.0 0.00 0.00 0.00 38 1005.5
20260503202408 56 262 1.0 4.0 0.00 0.00 0.00 42 1005.4
20260503201906 57 215 3.0 4.0 0.00 0.00 0.00 38 1005.6
20260503201403 57 278 3.0 6.0 0.00 0.00 0.00 38 1005.7
20260503200900 56 331 2.0 3.0 0.00 0.00 0.00 40 1005.7
20260503200356 56 310 3.0 6.0 0.00 0.00 0.00 37 1005.7
20260503195854 58 211 1.0 4.0 0.00 0.00 0.00 35 1005.7
20260503195350 57 264 4.0 6.0 0.00 0.00 0.00 37 1005.7
20260503194847 57 268 3.0 9.0 0.00 0.00 0.00 36 1005.9
20260503194343 58 293 2.0 8.0 0.00 0.00 0.00 36 1005.7
20260503193840 57 275 2.0 4.0 0.00 0.00 0.00 37 1005.9
20260503193335 56 2 4.0 6.0 0.00 0.00 0.00 37 1005.8
20260503192831 56 303 2.0 3.0 0.00 0.00 0.00 38 1006.2
20260503192327 57 307 4.0 6.0 0.00 0.00 0.00 36 1006.2
20260503191823 56 289 4.0 7.0 0.00 0.00 0.00 37 1006.3
20260503191321 57 274 3.0 4.0 0.00 0.00 0.00 36 1006.4
20260503190817 57 267 2.0 3.0 0.00 0.00 0.00 37 1006.3
20260503190315 58 249 3.0 4.0 0.00 0.00 0.00 36 1006.5
20260503185812 57 244 2.0 6.0 0.00 0.00 0.00 36 1006.1
20260503185308 56 274 4.0 4.0 0.00 0.00 0.00 38 1006.5
20260503184807 55 251 3.0 3.0 0.00 0.00 0.00 39 1006.5
20260503184304 57 252 4.0 6.0 0.00 0.00 0.00 37 1006.6
20260503183800 56 359 1.0 4.0 0.00 0.00 0.00 38 1006.5
20260503183258 55 345 3.0 4.0 0.00 0.00 0.00 37 1006.6
20260503182755 57 271 3.0 7.0 0.00 0.00 0.00 36 1006.6
20260503182254 56 239 1.0 8.0 0.00 0.00 0.00 42 1006.7
20260503181750 56 266 1.0 8.0 0.00 0.00 0.00 36 1006.8
20260503181247 56 345 3.0 4.0 0.00 0.00 0.00 37 1006.7
20260503180743 56 250 4.0 4.0 0.00 0.00 0.00 36 1007.0
20260503180242 56 348 3.0 4.0 0.00 0.00 0.00 39 1006.8
20260503175738 56 252 2.0 4.0 0.00 0.00 0.00 41 1006.7
20260503175236 56 264 2.0 4.0 0.00 0.00 0.00 39 1006.9
20260503174732 56 332 2.0 6.0 0.00 0.00 0.00 39 1007.0
20260503174231 55 61 4.0 6.0 0.00 0.00 0.00 37 1006.9
20260503173730 54 76 3.0 4.0 0.00 0.00 0.00 37 1007.0
20260503173226 54 260 2.0 7.0 0.00 0.00 0.00 44 1006.9
20260503172724 54 255 3.0 4.0 0.00 0.00 0.00 40 1007.0
20260503172221 54 325 1.0 3.0 0.00 0.00 0.00 41 1007.1
20260503171717 53 243 4.0 6.0 0.00 0.00 0.00 41 1007.3
20260503171214 53 273 3.0 4.0 0.00 0.00 0.00 41 1007.2
20260503170711 53 272 4.0 7.0 0.00 0.00 0.00 39 1007.3
20260503170208 53 254 3.0 4.0 0.00 0.00 0.00 42 1007.4
20260503160130 49 242 4.0 7.0 0.00 0.00 0.00 46 1008.0
20260503150600 48 262 1.0 3.0 0.00 0.00 0.00 48 1008.3
20260503130949 41 353 0.0 4.0 0.00 0.00 0.00 67 1008.2
20260503130447 40 304 2.0 3.0 0.00 0.00 0.00 71 1008.3
20260503110344 32 82 0.0 0.0 0.00 0.00 0.00 92 1007.5
20260503090235 31 86 0.0 0.0 0.00 0.00 0.00 91 1006.7
20260503081202 33 80 0.0 0.0 0.00 0.00 0.00 89 1006.7
20260503080658 33 80 0.0 0.0 0.00 0.00 0.00 89 1006.5
20260503080155 33 80 0.0 0.0 0.00 0.00 0.00 89 1006.6
20260503072632 33 81 0.0 0.0 0.00 0.00 0.00 90 1006.2
20260503072128 33 81 0.0 0.0 0.00 0.00 0.00 90 1006.2
20260503071625 32 81 0.0 0.0 0.00 0.00 0.00 89 1006.3
20260503071122 32 85 0.0 0.0 0.00 0.00 0.00 89 1006.4
20260503070619 32 85 0.0 0.0 0.00 0.00 0.00 89 1006.1
20260503070117 33 73 0.0 0.0 0.00 0.00 0.00 87 1006.2
20260503055038 35 334 0.0 0.0 0.00 0.00 0.00 82 1006.3
20260503054533 35 333 0.0 0.0 0.00 0.00 0.00 82 1006.3
20260503054031 35 318 0.0 0.0 0.00 0.00 0.00 82 1006.3
20260503053529 35 301 0.0 0.0 0.00 0.00 0.00 81 1006.2
20260503053026 35 303 0.0 0.0 0.00 0.00 0.00 80 1006.2
20260503052523 35 301 0.0 0.0 0.00 0.00 0.00 80 1006.5
20260503052019 36 306 0.0 0.0 0.00 0.00 0.00 81 1006.5
20260503051515 36 310 0.0 0.0 0.00 0.00 0.00 80 1006.5
20260503051013 36 310 0.0 0.0 0.00 0.00 0.00 78 1006.3
20260503050508 36 318 0.0 0.0 0.00 0.00 0.00 78 1006.5
20260503050006 36 344 0.0 0.0 0.00 0.00 0.00 78 1006.4
20260503045503 36 284 0.0 0.0 0.00 0.00 0.00 78 1006.5
20260503045000 36 322 0.0 0.0 0.00 0.00 0.00 78 1006.5
20260503044457 37 322 0.0 0.0 0.00 0.00 0.00 78 1006.7
20260503043954 37 328 0.0 0.0 0.00 0.00 0.00 78 1006.6
20260503043450 37 328 0.0 0.0 0.00 0.00 0.00 78 1006.6
20260503042947 37 328 0.0 0.0 0.00 0.00 0.00 78 1006.6
20260503042444 37 328 0.0 0.0 0.00 0.00 0.00 77 1006.7